sat.trackr.live / text

‹ back to catalog

GOES 18

NORAD 51850 · 2022-021A

PAYLOAD ACTIVE UNKNOWN

§ Identity

Operator
Country
US
Launch date
2022-03-01
Launch site
AFETR
Launch vehicle
Mass (kg)
RCS (m²)

Purposes: comms, earth_obs

External: N2YO · Heavens-Above · Gunter

§ Orbital elements

Epoch: 2026-05-24T23:40:13.162080Z

Period
1,436.08 min
Inclination
0.0006°
Eccentricity
0.0000498
Mean motion
1.00272890 rev/d
Perigee alt
35,784.2 km
Apogee alt
35,788.4 km
Semi-major
42,164.4 km
B*
0.0000e+0
RAAN
84.9505°
Arg perigee
23.6237°
Mean anomaly
352.0570°
Rev number
636

§ Raw data

GOES 181 51850U 22021A   26144.98626345  .00000094  00000+0  00000+0 0  99972 51850   0.0006  84.9505 0000498  23.6237 352.0570  1.00272890  6368

JSON: /api/v1/satellites/51850 · /tle

For live sub-satellite position, see the globe view (requires WebGL).

§ Visibility from observer

Set your observer location to see the next 7 days of passes ≥ 10°. The values pass through the URL so the page stays shareable.

No JS? Fill the form by hand. The geolocation button needs JavaScript.

§ Radio — SatNOGS DB

ModeDescriptionDownlinkUplink
FM Mode L - CDA 1.693 GHz
FM Mode L - DCP Relay US 1.680 GHz
FM Mode L - GRB 1.687 GHz
FM Mode L - HRIT 1.694 GHz
FM Mode L SARSAT to LUT 1.545 GHz
FM Mode S - TTC 2.211 GHz
FM Mode U - DCP Command 1 468.775 MHz

7 transmitters · refreshed weekly from db.satnogs.org